Milas, Turkey

3:02 AM EET on February 11, 2016 (GMT +0200)
Bodrum

Weather History for LTFE - December, 2012

Change the Weather History Date:

Monday, December 17, 2012

  Actual Average (LGKO) Record (LGKO)
Temperature  
Mean Temperature 54 °F -  
Max Temperature 62 °F 56 °F 66 °F (1999)
Min Temperature 46 °F 48 °F 39 °F (2003)
Degree Days  
Heating Degree Days 11    
Growing Degree Days 4 (Base 50)    
Moisture  
Dew Point 52 °F    
Average Humidity 92    
Maximum Humidity 100    
Minimum Humidity 81    
Precipitation  
Precipitation 0.00 in - - ()
Sea Level Pressure  
Sea Level Pressure 29.90 in    
Wind  
Wind Speed 4 mph ()    
Max Wind Speed 9 mph    
Max Gust Speed -    
Visibility 4.5 miles    
Events Fog , Rain    
Averages and records for this station are not official NWS values.
T = Trace of Precipitation, MM = Missing Value Source: Averaged Metar Reports

Daily Weather History Graph

Daily Weather History Graph

Search for Another Location

Airport or City:

Trip Planner

Search our weather history database for the weather conditions in past years. The results will help you decide how hot, cold, wet, or windy it might be!

Date:

Astronomy

Dec. 17, 2012 Rise Set
Actual Time 7:17 AM EET 4:53 PM EET
Civil Twilight 6:48 AM EET 5:22 PM EET
Nautical Twilight 6:15 AM EET 5:55 PM EET
Astronomical Twilight 5:43 AM EET 6:27 PM EET
Moon 10:19 AM EET (12/17) 9:48 PM EET (12/17)
Length of Visible Light 10h 34m
Length of Day
9h 36m
Waxing Crescent, 22% of the Moon is Illuminated
Dec 17
Waxing Crescent
Dec 20
First Quarter
Dec 28
Full
Jan 5
Last Quarter
Jan 11
New

Hourly Weather History & Observations

Time (EET) Temp. Windchill Dew Point Humidity Pressure Visibility Wind Dir Wind Speed Gust Speed Precip Events Conditions
12:20 AM 46.4 °F 44.3 °F 41.0 °F 81% 30.01 in 6.2 mi ESE 4.6 mph - N/A   Mostly Cloudy
12:50 AM 46.4 °F 45.2 °F 41.0 °F 81% 30.01 in 6.2 mi ESE 3.5 mph - N/A   Mostly Cloudy
1:20 AM 46.4 °F - 41.0 °F 81% 30.01 in 6.2 mi Variable 1.2 mph - N/A   Mostly Cloudy
1:50 AM 48.2 °F - 44.6 °F 87% 30.01 in 6.2 mi SE 3.5 mph - N/A   Mostly Cloudy
2:20 AM 50.0 °F - 44.6 °F 82% 29.98 in 6.2 mi ESE 4.6 mph - N/A Rain Light Rain Showers
2:50 AM 50.0 °F - 46.4 °F 87% 29.98 in 6.2 mi Variable 1.2 mph - N/A Rain Light Rain Showers
3:20 AM 50.0 °F - 48.2 °F 94% 29.98 in 6.2 mi ENE 5.8 mph - N/A Rain Light Rain Showers
3:50 AM 50.0 °F - 46.4 °F 87% 29.95 in 4.3 mi NE 4.6 mph - N/A Rain Light Rain Showers
4:20 AM 50.0 °F - 48.2 °F 94% 29.95 in 4.3 mi NE 3.5 mph - N/A Rain Light Rain Showers
4:50 AM 50.0 °F - 48.2 °F 94% 29.95 in 4.3 mi NE 6.9 mph - N/A Rain Light Rain Showers
5:20 AM 50.0 °F - 48.2 °F 94% 29.95 in 4.3 mi NE 6.9 mph - N/A Rain Light Rain Showers
5:50 AM 51.8 °F - 50.0 °F 94% 29.92 in 5.0 mi ENE 9.2 mph - N/A Rain Light Rain Showers
6:20 AM 53.6 °F - 51.8 °F 94% 29.92 in 5.6 mi East 5.8 mph - N/A Rain Light Rain Showers
6:50 AM 53.6 °F - 51.8 °F 94% 29.92 in 4.3 mi ENE 6.9 mph - N/A Rain Light Rain Showers
7:20 AM 51.8 °F - 50.0 °F 94% 29.92 in - North 4.6 mph - N/A Rain Light Rain Showers
7:50 AM 53.6 °F - 51.8 °F 94% 29.89 in 5.0 mi East 6.9 mph - N/A Rain Light Rain Showers
8:20 AM 55.4 °F - 51.8 °F 88% 29.89 in 2.5 mi East 5.8 mph - N/A Rain Light Rain Showers
8:50 AM 53.6 °F - 51.8 °F 94% 29.89 in 2.5 mi Variable 2.3 mph - N/A Rain Light Rain Showers
9:20 AM 53.6 °F - 51.8 °F 94% 29.92 in 3.7 mi West 3.5 mph - N/A Rain Light Rain Showers
9:50 AM 53.6 °F - 51.8 °F 94% 29.92 in 3.7 mi Variable 1.2 mph - N/A   Mostly Cloudy
10:20 AM 55.4 °F - 53.6 °F 94% 29.92 in 5.0 mi ESE 8.1 mph - N/A Rain Light Rain Showers
10:50 AM 57.2 °F - 55.4 °F 94% 29.89 in 5.0 mi Variable 2.3 mph - N/A Rain Light Rain Showers
11:20 AM 57.2 °F - 55.4 °F 94% 29.89 in 6.2 mi West 3.5 mph - N/A   Mostly Cloudy
11:50 AM 57.2 °F - 55.4 °F 94% 29.89 in 5.0 mi Variable 2.3 mph - N/A Rain Light Rain Showers
12:20 PM 59.0 °F - 55.4 °F 88% 29.86 in 6.2 mi Variable 2.3 mph - N/A   Mostly Cloudy
12:50 PM 59.0 °F - 57.2 °F 94% 29.86 in 6.2 mi Variable 1.2 mph - N/A   Mostly Cloudy
1:20 PM 60.8 °F - 57.2 °F 88% 29.83 in 6.2 mi East 3.5 mph - N/A   Mostly Cloudy
1:50 PM 62.6 °F - 57.2 °F 82% 29.83 in 6.2 mi Variable 2.3 mph - N/A   Mostly Cloudy
2:20 PM 62.6 °F - 57.2 °F 82% 29.83 in 6.2 mi SSE 5.8 mph - N/A   Mostly Cloudy
2:50 PM 62.6 °F - 57.2 °F 82% 29.83 in 6.2 mi Variable 3.5 mph - N/A   Mostly Cloudy
3:20 PM 59.0 °F - 57.2 °F 94% 29.83 in 2.5 mi NW 6.9 mph - N/A Rain Rain Showers
3:50 PM 59.0 °F - 57.2 °F 94% 29.83 in 6.2 mi Variable 2.3 mph - N/A   Mostly Cloudy
4:20 PM 59.0 °F - 57.2 °F 94% 29.83 in 6.2 mi ESE 3.5 mph - N/A   Mostly Cloudy
4:50 PM 57.2 °F - 55.4 °F 94% 29.83 in 3.7 mi ESE 5.8 mph - N/A   Mostly Cloudy
5:20 PM 57.2 °F - 55.4 °F 94% 29.86 in 3.7 mi NE 3.5 mph - N/A   Mostly Cloudy
5:50 PM 55.4 °F - 53.6 °F 94% 29.86 in 1.2 mi Variable 3.5 mph - N/A Fog Patches of Fog
6:20 PM 55.4 °F - 53.6 °F 94% 29.86 in 1.4 mi Variable 3.5 mph - N/A Fog Patches of Fog
6:50 PM 55.4 °F - 53.6 °F 94% 29.86 in - Variable 2.3 mph - N/A   Mostly Cloudy
7:20 PM 55.4 °F - 53.6 °F 94% 29.86 in 2.5 mi ENE 3.5 mph - N/A Rain Light Rain Showers
7:50 PM 55.4 °F - 53.6 °F 94% 29.86 in 2.5 mi East 5.8 mph - N/A Rain Light Rain Showers
8:20 PM 55.4 °F - 53.6 °F 94% 29.86 in 2.5 mi East 3.5 mph - N/A   Mostly Cloudy
8:50 PM 53.6 °F - 53.6 °F 100% 29.86 in - Variable 3.5 mph - N/A Rain Light Rain Showers
9:20 PM 53.6 °F - 53.6 °F 100% 29.86 in 1.9 mi Variable 2.3 mph - N/A Rain Light Rain Showers
9:50 PM 53.6 °F - 53.6 °F 100% 29.86 in 3.7 mi SE 2.3 mph - N/A   Mostly Cloudy
10:20 PM 53.6 °F - 53.6 °F 100% 29.86 in - SE 3.5 mph - N/A   Mostly Cloudy
10:50 PM 53.6 °F - 53.6 °F 100% 29.86 in 2.2 mi ESE 3.5 mph - N/A   Mostly Cloudy
11:20 PM 55.4 °F - 53.6 °F 94% 29.86 in 3.7 mi Variable 2.3 mph - N/A   Mostly Cloudy
11:50 PM 53.6 °F - 53.6 °F 100% 29.86 in 3.7 mi East 3.5 mph - N/A   Mostly Cloudy